Hourly Weather Takeo

Today, 29 September, Tuesday

Time Temperature Precipitation Wind Pressure Humidity
00:00 +27°C° 0 mm 2 mps 756 mmHg 90%
01:00 +27°C° 0 mm 2 mps 755 mmHg 91%
02:00 +27°C° 0 mm 2 mps 755 mmHg 91%
03:00 +27°C° 0 mm 2 mps 755 mmHg 91%
04:00 +27°C° 0 mm 2 mps 755 mmHg 91%
05:00 +27°C° 0 mm 2 mps 755 mmHg 89%
06:00 +27°C° 0 mm 2 mps 755 mmHg 87%
07:00 +28°C° 0 mm 2 mps 755 mmHg 85%
08:00 +29°C° 0.3 mm 3 mps 755 mmHg 78%
09:00 +31°C° 0.3 mm 3 mps 756 mmHg 72%
10:00 +33°C° 0.3 mm 4 mps 756 mmHg 65%
11:00 +33°C° 1.4 mm 5 mps 755 mmHg 64%
12:00 +34°C° 1.4 mm 5 mps 755 mmHg 64%
13:00 +34°C° 0 mm 6 mps 755 mmHg 62%
14:00 +34°C° 0.3 mm 5 mps 754 mmHg 63%
15:00 +34°C° 0.3 mm 5 mps 754 mmHg 64%
16:00 +33°C° 0.3 mm 5 mps 753 mmHg 64%
17:00 +32°C° 0 mm 4 mps 754 mmHg 69%
18:00 +30°C° 0 mm 3 mps 754 mmHg 73%
19:00 +29°C° 0 mm 3 mps 754 mmHg 78%
20:00 +29°C° 0 mm 2 mps 755 mmHg 79%
21:00 +29°C° 0 mm 2 mps 756 mmHg 81%
22:00 +28°C° 0 mm 2 mps 756 mmHg 82%
23:00 +28°C° 0 mm 2 mps 756 mmHg 83%

Tomorrow, 30 September, Wednesday

Time Temperature Precipitation Wind Pressure Humidity
00:00 +28°C° 0 mm 2 mps 755 mmHg 84%
01:00 +28°C° 0 mm 1 mps 755 mmHg 85%
02:00 +28°C° 0 mm 1 mps 754 mmHg 85%
03:00 +27°C° 0 mm 1 mps 754 mmHg 85%
04:00 +27°C° 0 mm 2 mps 754 mmHg 85%
05:00 +28°C° 0 mm 1 mps 754 mmHg 84%
06:00 +28°C° 0 mm 1 mps 754 mmHg 83%
07:00 +28°C° 0 mm 1 mps 755 mmHg 82%
08:00 +30°C° 0 mm 2 mps 755 mmHg 76%
09:00 +31°C° 0 mm 3 mps 755 mmHg 70%
10:00 +34°C° 0 mm 5 mps 756 mmHg 64%
11:00 +34°C° 0.1 mm 5 mps 755 mmHg 61%
12:00 +35°C° 0.1 mm 5 mps 754 mmHg 57%
13:00 +36°C° 0.1 mm 5 mps 753 mmHg 54%
14:00 +36°C° 0.2 mm 5 mps 753 mmHg 54%
15:00 +36°C° 0.2 mm 6 mps 752 mmHg 55%
16:00 +35°C° 0.2 mm 6 mps 752 mmHg 55%
17:00 +34°C° 0 mm 5 mps 752 mmHg 60%
18:00 +33°C° 0 mm 4 mps 753 mmHg 65%
19:00 +30°C° 0 mm 3 mps 753 mmHg 71%
20:00 +30°C° 0 mm 3 mps 754 mmHg 73%
21:00 +29°C° 0 mm 4 mps 754 mmHg 75%
22:00 +29°C° 0 mm 4 mps 755 mmHg 77%
23:00 +29°C° 0 mm 3 mps 754 mmHg 78%

Day after tomorrow, 1 October, Thursday

Time Temperature Precipitation Wind Pressure Humidity
00:00 +28°C° 0 mm 3 mps 754 mmHg 80%
01:00 +28°C° 0 mm 2 mps 754 mmHg 82%
02:00 +28°C° 0.1 mm 2 mps 753 mmHg 83%
03:00 +28°C° 0.1 mm 2 mps 753 mmHg 84%
04:00 +28°C° 0.1 mm 2 mps 753 mmHg 85%
05:00 +28°C° 0 mm 2 mps 753 mmHg 83%
06:00 +29°C° 0 mm 2 mps 754 mmHg 81%
07:00 +29°C° 0 mm 3 mps 754 mmHg 80%
08:00 +30°C° 0 mm 3 mps 754 mmHg 73%
09:00 +33°C° 0 mm 4 mps 755 mmHg 66%
10:00 +35°C° 0 mm 4 mps 755 mmHg 60%
11:00 +35°C° 0.8 mm 4 mps 754 mmHg 58%
12:00 +36°C° 0.8 mm 4 mps 753 mmHg 56%
13:00 +36°C° 0.8 mm 4 mps 753 mmHg 54%
14:00 +36°C° 1.1 mm 4 mps 752 mmHg 56%
15:00 +35°C° 1.1 mm 5 mps 752 mmHg 59%
16:00 +34°C° 1.1 mm 5 mps 751 mmHg 61%
17:00 +33°C° 0.1 mm 4 mps 752 mmHg 66%
18:00 +32°C° 0.1 mm 4 mps 752 mmHg 72%
19:00 +30°C° 0.1 mm 3 mps 753 mmHg 77%
20:00 +30°C° 0 mm 3 mps 753 mmHg 78%
21:00 +29°C° 0 mm 3 mps 754 mmHg 79%
22:00 +29°C° 0 mm 3 mps 754 mmHg 81%
23:00 +29°C° 0.3 mm 2 mps 754 mmHg 82%

2 October, Friday

Time Temperature Precipitation Wind Pressure Humidity
00:00 +29°C° 0.3 mm 2 mps 754 mmHg 83%
01:00 +28°C° 0.3 mm 1 mps 753 mmHg 84%
02:00 +28°C° 0 mm 1 mps 753 mmHg 84%
03:00 +28°C° 0 mm 1 mps 753 mmHg 84%
04:00 +28°C° 0 mm 1 mps 753 mmHg 85%
05:00 +28°C° 0 mm 1 mps 753 mmHg 83%
06:00 +29°C° 0 mm 1 mps 754 mmHg 82%
07:00 +29°C° 0 mm 1 mps 754 mmHg 81%
08:00 +30°C° 0.1 mm 2 mps 754 mmHg 74%
09:00 +32°C° 0.1 mm 2 mps 755 mmHg 67%
10:00 +35°C° 0.1 mm 3 mps 755 mmHg 60%
11:00 +35°C° 0.2 mm 3 mps 754 mmHg 58%
12:00 +36°C° 0.2 mm 3 mps 753 mmHg 56%
13:00 +36°C° 0.2 mm 3 mps 752 mmHg 54%
14:00 +35°C° 3.1 mm 2 mps 752 mmHg 59%
15:00 +34°C° 3.1 mm 2 mps 752 mmHg 64%
16:00 +32°C° 3.1 mm 2 mps 752 mmHg 70%
17:00 +31°C° 2.3 mm 2 mps 753 mmHg 75%
18:00 +30°C° 2.3 mm 2 mps 753 mmHg 81%
19:00 +29°C° 2.3 mm 2 mps 754 mmHg 87%
20:00 +29°C° 0.1 mm 2 mps 754 mmHg 87%
21:00 +29°C° 0.1 mm 1 mps 755 mmHg 88%
22:00 +29°C° 0.1 mm 1 mps 755 mmHg 88%
23:00 +28°C° 0 mm 1 mps 755 mmHg 88%

3 October, Saturday

Time Temperature Precipitation Wind Pressure Humidity
00:00 +28°C° 0 mm 1 mps 755 mmHg 87%
01:00 +28°C° 0 mm 1 mps 754 mmHg 87%
02:00 +28°C° 0.2 mm 1 mps 754 mmHg 88%
03:00 +28°C° 0.2 mm 1 mps 754 mmHg 89%
04:00 +26°C° 0.2 mm 0 mps 754 mmHg 89%
05:00 +28°C° 0.9 mm 1 mps 754 mmHg 88%
06:00 +28°C° 0.9 mm 1 mps 755 mmHg 86%
07:00 +28°C° 0.9 mm 1 mps 755 mmHg 85%
08:00 +29°C° 1.2 mm 1 mps 756 mmHg 81%
09:00 +30°C° 1.2 mm 2 mps 756 mmHg 76%
10:00 +31°C° 1.2 mm 3 mps 756 mmHg 72%
11:00 +33°C° 1.6 mm 3 mps 755 mmHg 70%
12:00 +33°C° 1.6 mm 3 mps 754 mmHg 68%
13:00 +34°C° 1.6 mm 4 mps 754 mmHg 65%
14:00 +33°C° 0.6 mm 4 mps 753 mmHg 67%
15:00 +33°C° 0.6 mm 4 mps 753 mmHg 69%
16:00 +33°C° 0.6 mm 4 mps 753 mmHg 71%
17:00 +30°C° 0.2 mm 4 mps 753 mmHg 76%
18:00 +29°C° 0.2 mm 3 mps 754 mmHg 81%
19:00 +28°C° 0.2 mm 3 mps 755 mmHg 85%
20:00 +28°C° 0 mm 3 mps 755 mmHg 86%
21:00 +28°C° 0 mm 2 mps 755 mmHg 87%
22:00 +28°C° 0 mm 2 mps 756 mmHg 88%
23:00 +28°C° 0 mm 2 mps 756 mmHg 88%

4 October, Sunday

Time Temperature Precipitation Wind Pressure Humidity
00:00 +28°C° 0 mm 2 mps 755 mmHg 88%
01:00 +28°C° 0 mm 1 mps 755 mmHg 89%
02:00 +28°C° 0.1 mm 1 mps 755 mmHg 89%
03:00 +27°C° 0.1 mm 1 mps 755 mmHg 89%
04:00 +27°C° 0.1 mm 1 mps 754 mmHg 89%
05:00 +28°C° 0 mm 1 mps 755 mmHg 88%
06:00 +28°C° 0 mm 1 mps 755 mmHg 86%
07:00 +28°C° 0 mm 1 mps 756 mmHg 84%
08:00 +30°C° 0.2 mm 1 mps 756 mmHg 77%
09:00 +31°C° 0.2 mm 1 mps 756 mmHg 70%
10:00 +33°C° 0.2 mm 1 mps 757 mmHg 64%
11:00 +34°C° 1.7 mm 2 mps 756 mmHg 62%
12:00 +34°C° 1.7 mm 3 mps 755 mmHg 61%
13:00 +35°C° 1.7 mm 3 mps 754 mmHg 60%
14:00 +34°C° 1.3 mm 4 mps 754 mmHg 62%
15:00 +34°C° 1.3 mm 5 mps 753 mmHg 64%
16:00 +34°C° 1.3 mm 6 mps 753 mmHg 67%
17:00 +33°C° 0.4 mm 5 mps 754 mmHg 71%
18:00 +30°C° 0.4 mm 4 mps 754 mmHg 75%
19:00 +29°C° 0.4 mm 3 mps 755 mmHg 79%
20:00 +29°C° 0 mm 3 mps 755 mmHg 80%
21:00 +29°C° 0 mm 2 mps 755 mmHg 81%
22:00 +28°C° 0 mm 2 mps 756 mmHg 82%
23:00 +28°C° 0 mm 2 mps 756 mmHg 83%
Show more